Вернуться в каталог

DELTA 1 DEB

АктивенPO
NORAD 37659·DEBRIS·🇺🇸 United States

Запущен Mar 5, 1978 с Vandenberg Space Force Base

Loading…

Ближайшие Пролёты (ближайшие 24 часа)

TLE

СвежийSource: Space-Track

Эпоха: Sep 13, 2026, 06:28 UTC

1 37659U 78026JW  26256.26966271  .00000094  00000-0  12851-3 0  9996
2 37659  98.7491 250.9376 0157144  81.9022 279.9922 13.74110062102026

Отслеживайте DELTA 1 DEB в реальном времени с AllMySat

Download on the App Store